Home > Weather > Christiansted > Past weeks

Flag for US Virgin Islands Past Weather in Christiansted, US Virgin Islands — Yesterday and Last 2 Weeks

Now
83 °F

Light rain. Cloudy.


Feels Like: 92 °F
Forecast: 79 / 85 °F
Wind: 8 mph from East

Location: Christiansted / Henry E. Rohlsen Airport - Saint Croix

Current Time: May 28, 2016 at 9:45:57 AM

Latest Report: May 28, 2016 at 8:53 AM


Visibility: 10 mi

Pressure: 30.03 "Hg

Humidity: 82%

Dew Point: 77 °F

Location of ChristianstedLocation

Past Weather in Christiansted — Graph

°F

Christiansted Temperature Yesterday

Maximum temperature yesterday: 87 °F (at 10:53 AM)
Minimum temperature yesterday: 79 °F (at 12:53 AM)
Average temperature yesterday: 83 °F

High & Low Weather Summary for the Past Weeks

 TemperatureHumidityPressure
High88 °F (May 17, 12:53 PM)93% (May 15, 3:04 AM)30.12 "Hg (May 15, 3:04 AM)
Low74 °F (May 26, 5:53 AM)59% (May 25, 9:53 AM)29.92 "Hg (May 27, 2:53 AM)
Average82 °F75%30.04 "Hg
* Reported May 13 8:53 AM — May 28 8:21 AM, Christiansted, Weather by CustomWeather, © 2016

Note: Actual official high and low records may vary slightly from our data, if they occured in-between our weather recording intervals... More about our weather records

Advertising

Christiansted Weather History for the Previous 24 Hours

Scroll right to see more
 ConditionsComfort  
Time TempWeatherWind HumidityBarometerVisibility
8:21 AM
Sat, May 28
83 °FPartly sunny.10 mph79%30.04 "Hg10 mi
7:53 AM82 °FPartly sunny.8 mph82%30.02 "Hg10 mi
6:53 AM82 °FBroken clouds.13 mph82%30.00 "Hg10 mi
5:53 AM81 °FPassing clouds.12 mph82%29.97 "Hg10 mi
4:53 AM82 °FPassing clouds.13 mph77%29.96 "Hg10 mi
4:05 AM81 °FPassing clouds.12 mph82%29.96 "Hg10 mi
3:53 AM81 °FPassing clouds.8 mph82%29.94 "Hg10 mi
2:53 AM82 °FPassing clouds.12 mph79%29.95 "Hg10 mi
1:53 AM82 °FPartly cloudy.14 mph79%29.95 "Hg10 mi
1:12 AM82 °FMostly cloudy.16 mph79%29.97 "Hg10 mi
12:53 AM82 °FPassing clouds.13 mph82%29.97 "Hg10 mi
11:53 PM
Fri, May 27
81 °FPartly cloudy.7 mph82%29.98 "Hg10 mi
10:53 PM81 °FPassing clouds.8 mph82%29.99 "Hg10 mi
9:53 PM82 °FPassing clouds.12 mph77%29.99 "Hg10 mi
8:53 PM82 °FPassing clouds.12 mph79%29.97 "Hg10 mi
7:53 PM82 °FClear.12 mph77%29.96 "Hg10 mi
6:53 PM82 °FPassing clouds.12 mph77%29.95 "Hg10 mi
5:53 PM83 °FScattered clouds.14 mph74%29.93 "Hg10 mi
4:53 PM85 °FPassing clouds.13 mph70%29.92 "Hg10 mi
3:53 PM85 °FScattered clouds.14 mph72%29.92 "Hg10 mi
2:53 PM87 °FSunny.13 mph67%29.94 "Hg10 mi
1:53 PM87 °FScattered clouds.12 mph67%29.96 "Hg10 mi
12:53 PM85 °FScattered clouds.10 mph70%29.96 "Hg10 mi
11:53 AM87 °FScattered clouds.12 mph67%29.98 "Hg10 mi
10:53 AM87 °FScattered clouds.12 mph69%29.98 "Hg10 mi
9:53 AM85 °FScattered clouds.10 mph72%29.98 "Hg10 mi
Weather by CustomWeather, © 2016

See weather overviewHow to use our weather pages